Weather History for Valparaiso, IN

Change the Weather History Date:

Sunday, November 6, 2011

  Actual Average Record
Temperature  
Mean Temperature 52 °F 45 °F  
Max Temperature 62 °F 54 °F 70 °F (2008)
Min Temperature 41 °F 37 °F 23 °F (2012)
Degree Days  
Heating Degree Days 14 20  
Month to date heating degree days 113  
Since 1 July heating degree days 643  
Cooling Degree Days 0 0  
Month to date cooling degree days 0  
Year to date cooling degree days 713  
Growing Degree Days 2 (Base 50)    
Moisture  
Dew Point 41 °F    
Average Humidity 63    
Maximum Humidity 80    
Minimum Humidity 50    
Precipitation  
Precipitation 0.00 in 0.13 in 0.70 in (2013)
Month to date precipitation 0.80  
Year to date precipitation 32.80  
Sea Level Pressure  
Sea Level Pressure 30.11 in    
Wind  
Wind Speed 12 mph (South)    
Max Wind Speed 22 mph    
Max Gust Speed 34 mph    
Visibility 10 miles    
Events      
T = Trace of Precipitation, MM = Missing Value Source: NWS Daily Summary

Daily Weather History Graph

Daily Weather History Graph

Search for Another Location

Airport:

Trip Planner

Search our weather history database for the weather conditions in past years. The results will help you decide how hot, cold, wet, or windy it might be!

Date:

Astronomy

Nov. 06, 2011 Rise Set
Actual Time 6:25 AM CST 4:37 PM CST
Civil Twilight 5:56 AM CST 5:06 PM CST
Nautical Twilight 5:23 AM CST 5:39 PM CST
Astronomical Twilight 4:50 AM CST 6:11 PM CST
Moon 2:23 PM CST (11/6) 2:29 AM CST (11/6)
Length of Visible Light 11h 10m
Length of Day
10h 11m
Waxing Gibbous, 86% of the Moon is Illuminated
Nov 6
Waxing Gibbous
Nov 10
Full
Nov 18
Last Quarter
Nov 25
New
Dec 2
First Quarter

Hourly Weather History & Observations

Time (CST) Temp. Windchill Dew Point Humidity Pressure Visibility Wind Dir Wind Speed Gust Speed Precip Events Conditions
12:53 AM 45.0 °F 40.1 °F 30.9 °F 58% 30.11 in 10.0 mi SSE 9.2 mph - N/A   Clear
1:53 AM 43.0 °F 38.2 °F 30.9 °F 62% 30.12 in 10.0 mi SSE 8.1 mph - N/A   Clear
1:53 AM 41.0 °F 38.0 °F 32.0 °F 70% 30.13 in 10.0 mi SSE 4.6 mph - N/A   Clear
2:53 AM 42.1 °F 37.7 °F 33.1 °F 70% 30.13 in 10.0 mi SSE 6.9 mph - N/A   Clear
3:53 AM 43.0 °F 38.2 °F 35.1 °F 74% 30.12 in 10.0 mi SSE 8.1 mph - N/A   Clear
4:53 AM 43.0 °F 37.7 °F 36.0 °F 76% 30.13 in 10.0 mi SSE 9.2 mph - N/A   Clear
6:53 AM 45.0 °F 40.6 °F 39.0 °F 80% 30.13 in 10.0 mi South 8.1 mph - N/A   Clear
7:53 AM 48.9 °F - 42.1 °F 77% 30.13 in 10.0 mi South 12.7 mph 23.0 mph N/A   Clear
8:53 AM 54.0 °F - 43.0 °F 66% 30.12 in 10.0 mi South 16.1 mph 26.5 mph N/A   Clear
9:53 AM 57.9 °F - 43.0 °F 58% 30.11 in 10.0 mi SSW 18.4 mph 26.5 mph N/A   Clear
10:53 AM 60.1 °F - 43.0 °F 53% 30.11 in 10.0 mi SSW 21.9 mph 33.4 mph N/A   Clear
11:53 AM 62.1 °F - 43.0 °F 50% 30.09 in 10.0 mi SSW 16.1 mph 34.5 mph N/A   Clear
12:53 PM 61.0 °F - 43.0 °F 52% 30.08 in 10.0 mi SSW 20.7 mph 28.8 mph N/A   Overcast
1:53 PM 59.0 °F - 43.0 °F 55% 30.08 in 10.0 mi SSW 18.4 mph 27.6 mph N/A   Overcast
2:53 PM 57.0 °F - 46.0 °F 67% 30.09 in 10.0 mi SSW 18.4 mph 28.8 mph N/A   Overcast
3:06 PM 57.2 °F - 46.4 °F 67% 30.08 in 10.0 mi SSW 17.3 mph 29.9 mph N/A   Overcast
3:40 PM 57.2 °F - 46.4 °F 67% 30.08 in 10.0 mi SSW 12.7 mph 23.0 mph N/A   Overcast
3:53 PM 57.0 °F - 45.0 °F 64% 30.09 in 10.0 mi SSW 10.4 mph - N/A   Overcast
5:53 PM 57.9 °F - 43.0 °F 58% 30.12 in 10.0 mi SSW 11.5 mph 20.7 mph N/A   Overcast
6:53 PM 57.0 °F - 42.1 °F 57% 30.12 in 10.0 mi SSW 13.8 mph 19.6 mph N/A   Overcast
7:53 PM 57.0 °F - 43.0 °F 59% 30.13 in 10.0 mi SSW 12.7 mph - N/A   Overcast
8:53 PM 57.0 °F - 43.0 °F 59% 30.14 in 10.0 mi SSW 11.5 mph 19.6 mph N/A   Overcast
9:53 PM 57.0 °F - 43.0 °F 59% 30.15 in 10.0 mi SSW 13.8 mph 20.7 mph N/A   Overcast
10:53 PM 57.0 °F - 42.1 °F 57% 30.15 in 10.0 mi SSW 12.7 mph - N/A   Overcast